Scottsdale, AZ

4:28 AM MST on October 20, 2017 (GMT -0700)
Scottsdale

Weather History for KSDL - February, 2013

Change the Weather History Date:

Wednesday, February 6, 2013

  Actual Average Record
Temperature  
Mean Temperature 60 °F -  
Max Temperature 70 °F 64 °F 81 °F (2015)
Min Temperature 50 °F 44 °F 35 °F (2008)
Degree Days  
Heating Degree Days 5    
Growing Degree Days 10 (Base 50)    
Moisture  
Dew Point 42 °F    
Average Humidity 54    
Maximum Humidity 74    
Minimum Humidity 33    
Precipitation  
Precipitation 0.00 in - - ()
Sea Level Pressure  
Sea Level Pressure 29.91 in    
Wind  
Wind Speed 1 mph (SSW)    
Max Wind Speed 7 mph    
Max Gust Speed -    
Visibility 10 miles    
Events      
Averages and records for this station are not official NWS values.
T = Trace of Precipitation, MM = Missing Value Source: NWS Daily Summary

Daily Weather History Graph

Daily Weather History Graph

Search for Another Location

Airport or City:

Trip Planner

Search our weather history database for the weather conditions in past years. The results will help you decide how hot, cold, wet, or windy it might be!

Date:

Astronomy

Feb. 06, 2013 Rise Set
Actual Time 7:19 AM MST 6:04 PM MST
Civil Twilight 6:54 AM MST 6:29 PM MST
Nautical Twilight 6:24 AM MST 6:59 PM MST
Astronomical Twilight 5:55 AM MST 7:28 PM MST
Moon 4:01 AM MST (2/6) 2:31 PM MST (2/6)
Length of Visible Light 11h 35m
Length of Day
10h 44m
Waning Crescent, 16% of the Moon is Illuminated
Feb 6
Waning Crescent
Feb 10
New
Feb 17
First Quarter
Feb 25
Full
Mar 4
Last Quarter

Hourly Weather History & Observations

Time (MST) Temp. Dew Point Humidity Pressure Visibility Wind Dir Wind Speed Gust Speed Precip Events Conditions
12:53 AM 53.1 °F 42.1 °F 66% 29.88 in 10.0 mi SSW 3.5 mph - N/A   Clear
1:53 AM 53.1 °F 42.1 °F 66% 29.89 in 10.0 mi Calm Calm - N/A   Clear
2:53 AM 51.1 °F 42.1 °F 71% 29.88 in 10.0 mi Calm Calm - N/A   Clear
3:53 AM 51.1 °F 43.0 °F 74% 29.88 in 10.0 mi Calm Calm - N/A   Clear
4:53 AM 51.1 °F 42.1 °F 71% 29.87 in 10.0 mi Calm Calm - N/A   Clear
5:53 AM 52.0 °F 43.0 °F 71% 29.88 in 10.0 mi Calm Calm - N/A   Clear
6:53 AM 50.0 °F 42.1 °F 74% 29.89 in 10.0 mi Calm Calm - N/A   Mostly Cloudy
7:53 AM 53.1 °F 41.0 °F 64% 29.90 in 10.0 mi Calm Calm - N/A   Partly Cloudy
8:53 AM 54.0 °F 43.0 °F 66% 29.91 in 10.0 mi Calm Calm - N/A   Clear
9:53 AM 60.1 °F 42.1 °F 51% 29.93 in 10.0 mi SSE 4.6 mph - N/A   Scattered Clouds
10:53 AM 63.0 °F 42.1 °F 46% 29.93 in 10.0 mi South 3.5 mph - N/A   Clear
11:53 AM 64.0 °F 41.0 °F 43% 29.93 in 10.0 mi Calm Calm - N/A   Overcast
12:53 PM 64.9 °F 42.1 °F 43% 29.92 in 10.0 mi Calm Calm - N/A   Partly Cloudy
1:53 PM 69.1 °F 41.0 °F 36% 29.90 in 10.0 mi Calm Calm - N/A   Mostly Cloudy
2:53 PM 70.0 °F 42.1 °F 36% 29.89 in 10.0 mi Calm Calm - N/A   Clear
3:53 PM 70.0 °F 39.9 °F 33% 29.89 in 10.0 mi Calm Calm - N/A   Clear
4:53 PM 70.0 °F 39.9 °F 33% 29.90 in 10.0 mi SW 6.9 mph - N/A   Clear
5:53 PM 69.1 °F 39.9 °F 35% 29.91 in 10.0 mi WSW 3.5 mph - N/A   Clear
6:53 PM 66.0 °F 41.0 °F 40% 29.93 in 10.0 mi Calm Calm - N/A   Clear
7:53 PM 64.0 °F 41.0 °F 43% 29.94 in 10.0 mi Calm Calm - N/A   Clear
8:53 PM 63.0 °F 42.1 °F 46% 29.95 in 10.0 mi Calm Calm - N/A   Clear
9:53 PM 59.0 °F 44.1 °F 58% 29.96 in 10.0 mi Calm Calm - N/A   Clear
10:53 PM 60.1 °F 44.1 °F 55% 29.98 in 10.0 mi Calm Calm - N/A   Mostly Cloudy
11:53 PM 57.0 °F 45.0 °F 64% 29.99 in 10.0 mi Calm Calm - N/A   Clear